Main page
METAR-TAF:

METAR-TAF

Airports :

Laupheim Air Base

Laupheim, Germany

latitude: 48-13N, longitude: 009-55E, elevation: 538 m

Current weather observation

The report was made 25 minutes ago, at 09:20 UTC
Wind 4 kt from the South
Temperature 15°C
Humidity 72%
Pressure 1004 hPa
Visibility 10 km or more

METAR: ETHL 190920Z AUTO 19004KT 9999 // ////// 15/10 Q1004 ///

Time: 11:45 (09:45 UTC)


TAF: missing

Weather observations and forecasts of more than 4000 airports (METAR and TAF reports).

The available stations are represented by yellow and red dots on the map.

Hover mouse over dot to see the name of the station.

Then click to see weather observations and forecasts.

To change the map : click on the green buttons with a black cross to zoom in, on the green button with a dash to zoom out, or on the green arrows for adjacent maps.


METAR-TAF: